Tracking 25734 objects as of 28-May-2022
HD Live streaming from Space Station
objects crossing your sky now

NOAA 17 DEB

Track NOAA 17 DEB now!
10-day predictions


NORAD ID: 48724
Int'l Code: 2002-032BJ
Perigee: 741.5 km
Apogee: 803.5 km
Inclination: 98.7 °
Period: 100.1 minutes
Semi major axis: 7143 km
RCS: Unknown
Launch date: June 24, 2002
Source: United States (US)
Launch site: AIR FORCE WESTERN TEST RANGE (AFWTR)

Note: This is SATELLITE DEBRIS
aabbcc
Your satellite tracking list
Your tracking list is empty




NASA's NSSDC Master Catalog

Two Line Element Set (TLE):
1 48724U 02032BH  22148.12660003  .00003902  00000-0  12924-2 0  9991
2 48724  98.7119 104.7314 0043367 116.1044 244.4614 14.37916748 62634
Source of the keplerian elements: AFSPC